Location: *
(12.5665°N, 8.3471°E)
Time: 10:46:35
(UTC+00:00)

Cosmos 1833 - Pass Details

Date: 23 September 2019
Orbit: 836 x 863 km, 70.9° (Epoch: 13 October)

Event Time Altitude Azimuth Distance (km) Brightness Sun altitude
Exits shadow 03:31:17 65° 207° (SSW) 915 4.1 -26.3°
Drops below altitude 10° 03:36:14 10° 171° (S) 2,453 6.6 -25.1°
Sets 03:38:41 0° 169° (SSE) 3,391 7.4 -24.5°
